When you browse on this site, cookies collect data to enhance your experience and personalize the content and advertising you see.
Visit our Privacy Policy to learn more. By continuing to use the site, you agree to this use of cookies and data.
  • In Slovakia
  • List of Countries
  • For 7 days
  • Water Temperature
  • Weather Map
  • Weather Widgets
  • user-avatar
    Login

    Hourly Weather Laszkar Gah

    Today, 20 October, Sunday

    Time Temperature Precipitation Wind Pressure Humidity
    00:00 +18°C° 0 mm 1 mps 695 mmHg 22%
    01:00 +15°C° 0 mm 0 mps 695 mmHg 23%
    02:00 +14°C° 0 mm 0 mps 695 mmHg 24%
    03:00 +14°C° 0 mm 0 mps 694 mmHg 25%
    04:00 +13°C° 0 mm 0 mps 694 mmHg 26%
    05:00 +16°C° 0 mm 1 mps 695 mmHg 24%
    06:00 +19°C° 0 mm 1 mps 696 mmHg 21%
    07:00 +20°C° 0 mm 1 mps 697 mmHg 19%
    08:00 +23°C° 0 mm 1 mps 697 mmHg 17%
    09:00 +25°C° 0 mm 1 mps 698 mmHg 14%
    10:00 +26°C° 0 mm 0 mps 698 mmHg 11%
    11:00 +29°C° 0 mm 1 mps 698 mmHg 11%
    12:00 +30°C° 0 mm 1 mps 697 mmHg 10%
    13:00 +31°C° 0 mm 2 mps 697 mmHg 10%
    14:00 +31°C° 0 mm 2 mps 696 mmHg 10%
    15:00 +31°C° 0 mm 3 mps 696 mmHg 10%
    16:00 +30°C° 0 mm 3 mps 696 mmHg 10%
    17:00 +28°C° 0 mm 3 mps 695 mmHg 12%
    18:00 +25°C° 0 mm 3 mps 695 mmHg 14%
    19:00 +21°C° 0 mm 3 mps 695 mmHg 16%
    20:00 +20°C° 0 mm 2 mps 695 mmHg 17%
    21:00 +19°C° 0 mm 2 mps 695 mmHg 18%
    22:00 +18°C° 0 mm 2 mps 694 mmHg 19%
    23:00 +18°C° 0 mm 1 mps 694 mmHg 20%

    Tomorrow, 21 October, Monday

    Time Temperature Precipitation Wind Pressure Humidity
    00:00 +18°C° 0 mm 1 mps 694 mmHg 21%
    01:00 +16°C° 0 mm 1 mps 694 mmHg 22%
    02:00 +15°C° 0 mm 1 mps 694 mmHg 22%
    03:00 +15°C° 0 mm 1 mps 693 mmHg 23%
    04:00 +14°C° 0 mm 1 mps 693 mmHg 23%
    05:00 +16°C° 0 mm 1 mps 694 mmHg 21%
    06:00 +18°C° 0 mm 1 mps 695 mmHg 19%
    07:00 +20°C° 0 mm 1 mps 695 mmHg 18%
    08:00 +22°C° 0 mm 1 mps 696 mmHg 15%
    09:00 +25°C° 0 mm 1 mps 696 mmHg 12%
    10:00 +28°C° 0 mm 1 mps 697 mmHg 10%
    11:00 +29°C° 0 mm 2 mps 696 mmHg 9%
    12:00 +30°C° 0 mm 2 mps 696 mmHg 7%
    13:00 +31°C° 0 mm 3 mps 695 mmHg 6%
    14:00 +31°C° 0 mm 3 mps 695 mmHg 7%
    15:00 +32°C° 0 mm 4 mps 694 mmHg 7%
    16:00 +32°C° 0 mm 4 mps 694 mmHg 7%
    17:00 +28°C° 0 mm 4 mps 694 mmHg 8%
    18:00 +26°C° 0 mm 4 mps 694 mmHg 10%
    19:00 +22°C° 0 mm 3 mps 693 mmHg 11%
    20:00 +21°C° 0 mm 3 mps 693 mmHg 12%
    21:00 +20°C° 0 mm 3 mps 693 mmHg 13%
    22:00 +19°C° 0 mm 2 mps 693 mmHg 14%
    23:00 +19°C° 0 mm 2 mps 693 mmHg 15%

    Day after tomorrow, 22 October, Tuesday

    Time Temperature Precipitation Wind Pressure Humidity
    00:00 +18°C° 0 mm 2 mps 693 mmHg 16%
    01:00 +17°C° 0 mm 2 mps 692 mmHg 17%
    02:00 +17°C° 0 mm 2 mps 692 mmHg 18%
    03:00 +17°C° 0 mm 2 mps 692 mmHg 19%
    04:00 +17°C° 0 mm 2 mps 692 mmHg 20%
    05:00 +18°C° 0 mm 2 mps 693 mmHg 20%
    06:00 +19°C° 0 mm 2 mps 693 mmHg 19%
    07:00 +20°C° 0 mm 3 mps 694 mmHg 19%
    08:00 +22°C° 0 mm 3 mps 694 mmHg 17%
    09:00 +25°C° 0 mm 3 mps 695 mmHg 15%
    10:00 +28°C° 0 mm 3 mps 695 mmHg 14%
    11:00 +29°C° 0 mm 5 mps 695 mmHg 14%
    12:00 +30°C° 0 mm 6 mps 694 mmHg 14%
    13:00 +33°C° 0 mm 7 mps 694 mmHg 14%
    14:00 +32°C° 0 mm 8 mps 693 mmHg 14%
    15:00 +31°C° 0 mm 8 mps 693 mmHg 14%
    16:00 +29°C° 0 mm 9 mps 692 mmHg 14%
    17:00 +27°C° 0 mm 8 mps 692 mmHg 15%
    18:00 +24°C° 0 mm 6 mps 693 mmHg 17%
    19:00 +22°C° 0 mm 5 mps 693 mmHg 18%
    20:00 +20°C° 0 mm 5 mps 693 mmHg 19%
    21:00 +19°C° 0 mm 4 mps 692 mmHg 20%
    22:00 +18°C° 0 mm 3 mps 692 mmHg 21%
    23:00 +17°C° 0 mm 3 mps 692 mmHg 22%

    23 October, Wednesday

    Time Temperature Precipitation Wind Pressure Humidity
    00:00 +16°C° 0 mm 3 mps 692 mmHg 23%
    01:00 +14°C° 0 mm 3 mps 692 mmHg 24%
    02:00 +13°C° 0 mm 3 mps 691 mmHg 25%
    03:00 +12°C° 0 mm 3 mps 691 mmHg 27%
    04:00 +11°C° 0 mm 3 mps 691 mmHg 28%
    05:00 +12°C° 0 mm 3 mps 692 mmHg 28%
    06:00 +12°C° 0 mm 3 mps 692 mmHg 27%
    07:00 +12°C° 0 mm 3 mps 693 mmHg 26%
    08:00 +16°C° 0 mm 3 mps 693 mmHg 23%
    09:00 +18°C° 0 mm 3 mps 694 mmHg 20%
    10:00 +20°C° 0 mm 3 mps 694 mmHg 17%
    11:00 +23°C° 0 mm 2 mps 694 mmHg 15%
    12:00 +24°C° 0 mm 2 mps 693 mmHg 13%
    13:00 +26°C° 0 mm 2 mps 693 mmHg 12%
    14:00 +26°C° 0 mm 2 mps 693 mmHg 11%
    15:00 +26°C° 0 mm 2 mps 693 mmHg 11%
    16:00 +27°C° 0 mm 2 mps 692 mmHg 11%
    17:00 +24°C° 0 mm 2 mps 692 mmHg 14%
    18:00 +20°C° 0 mm 2 mps 692 mmHg 16%
    19:00 +18°C° 0 mm 2 mps 692 mmHg 19%
    20:00 +17°C° 0 mm 2 mps 692 mmHg 20%
    21:00 +16°C° 0 mm 1 mps 692 mmHg 21%
    22:00 +14°C° 0 mm 1 mps 692 mmHg 23%
    23:00 +14°C° 0 mm 1 mps 692 mmHg 22%

    24 October, Thursday

    Time Temperature Precipitation Wind Pressure Humidity
    00:00 +14°C° 0 mm 2 mps 692 mmHg 21%
    01:00 +14°C° 0 mm 2 mps 692 mmHg 19%
    02:00 +14°C° 0 mm 2 mps 692 mmHg 20%
    03:00 +13°C° 0 mm 2 mps 692 mmHg 21%
    04:00 +12°C° 0 mm 2 mps 692 mmHg 21%
    05:00 +12°C° 0 mm 2 mps 692 mmHg 20%
    06:00 +13°C° 0 mm 2 mps 693 mmHg 18%
    07:00 +13°C° 0 mm 2 mps 693 mmHg 17%
    08:00 +16°C° 0 mm 3 mps 694 mmHg 15%
    09:00 +18°C° 0 mm 3 mps 694 mmHg 13%
    10:00 +20°C° 0 mm 3 mps 695 mmHg 11%
    11:00 +22°C° 0 mm 3 mps 694 mmHg 10%
    12:00 +24°C° 0 mm 3 mps 694 mmHg 9%
    13:00 +26°C° 0 mm 3 mps 694 mmHg 8%
    14:00 +26°C° 0 mm 2 mps 693 mmHg 7%
    15:00 +26°C° 0 mm 2 mps 693 mmHg 7%
    16:00 +26°C° 0 mm 2 mps 693 mmHg 7%
    17:00 +24°C° 0 mm 2 mps 693 mmHg 9%
    18:00 +20°C° 0 mm 2 mps 693 mmHg 10%
    19:00 +18°C° 0 mm 3 mps 693 mmHg 11%
    20:00 +17°C° 0 mm 2 mps 693 mmHg 13%
    21:00 +16°C° 0 mm 2 mps 693 mmHg 14%
    22:00 +16°C° 0 mm 2 mps 693 mmHg 15%
    23:00 +15°C° 0 mm 2 mps 693 mmHg 17%

    25 October, Friday

    Time Temperature Precipitation Wind Pressure Humidity
    00:00 +15°C° 0 mm 2 mps 692 mmHg 18%
    01:00 +14°C° 0 mm 2 mps 692 mmHg 20%
    02:00 +14°C° 0 mm 2 mps 692 mmHg 21%
    03:00 +13°C° 0 mm 2 mps 692 mmHg 22%
    04:00 +12°C° 0 mm 3 mps 692 mmHg 23%
    05:00 +12°C° 0 mm 3 mps 693 mmHg 23%
    06:00 +12°C° 0 mm 3 mps 693 mmHg 23%
    07:00 +13°C° 0 mm 3 mps 694 mmHg 23%
    08:00 +16°C° 0 mm 3 mps 694 mmHg 20%
    09:00 +18°C° 0 mm 3 mps 695 mmHg 18%
    10:00 +20°C° 0 mm 3 mps 695 mmHg 15%
    11:00 +22°C° 0 mm 4 mps 695 mmHg 13%
    12:00 +25°C° 0 mm 4 mps 695 mmHg 12%
    13:00 +27°C° 0 mm 4 mps 694 mmHg 10%
    14:00 +26°C° 0 mm 4 mps 694 mmHg 10%
    15:00 +26°C° 0 mm 4 mps 694 mmHg 10%
    16:00 +26°C° 0 mm 4 mps 694 mmHg 10%
    17:00 +23°C° 0 mm 4 mps 694 mmHg 13%
    18:00 +20°C° 0 mm 4 mps 694 mmHg 15%
    19:00 +18°C° 0 mm 3 mps 693 mmHg 17%
    20:00 +17°C° 0 mm 3 mps 693 mmHg 16%
    21:00 +14°C° 0 mm 3 mps 693 mmHg 16%
    22:00 +14°C° 0 mm 2 mps 693 mmHg 15%
    23:00 +14°C° 0 mm 2 mps 693 mmHg 15%
    Show more